Tracking 24122 objects as of 9-Dec-2021
HD Live streaming from Space Station
objects crossing your sky now

BEIDOU G7

Track BEIDOU G7 now!
BEIDOU G7 is classified as:


NORAD ID: 41586
Int'l Code: 2016-037A
Perigee: 35,759.8 km
Apogee: 35,826.7 km
Inclination: 1.6 °
Period: 1,436.1 minutes
Semi major axis: 42164 km
RCS: Unknown
Launch date: June 12, 2016
Source: People's Republic of China (PRC)
Launch site: Xichang Space Center, China (XSC)
aabbcc
Your satellite tracking list
Your tracking list is empty




NASA's NSSDC Master Catalog

Two Line Element Set (TLE):
1 41586U 16037A   21342.95010122 -.00000356  00000-0  00000-0 0  9998
2 41586   1.5592  65.8937 0007928   3.2326 101.3788  1.00273560 20237
Source of the keplerian elements: AFSPC